Sevilla, Spain

9:18 PM CEST on April 25, 2017 (GMT +0200)
San Pablo

Weather History for LEZL - November, 2013

Change the Weather History Date:

Monday, November 4, 2013

  Actual Average Record
Temperature  
Mean Temperature 60 °F -  
Max Temperature 68 °F 65 °F 78 °F (1999)
Min Temperature 51 °F 47 °F 44 °F (2000)
Degree Days  
Heating Degree Days 6    
Growing Degree Days 10 (Base 50)    
Moisture  
Dew Point 53 °F    
Average Humidity 75    
Maximum Humidity 94    
Minimum Humidity 56    
Precipitation  
Precipitation 0.00 in - - ()
Sea Level Pressure  
Sea Level Pressure 30.17 in    
Wind  
Wind Speed 4 mph ()    
Max Wind Speed 14 mph    
Max Gust Speed 21 mph    
Visibility 6.2 miles    
Events      
Averages and records for this station are not official NWS values.
T = Trace of Precipitation, MM = Missing Value Source: Averaged Metar Reports

Daily Weather History Graph

Daily Weather History Graph

Search for Another Location

Airport or City:

Trip Planner

Search our weather history database for the weather conditions in past years. The results will help you decide how hot, cold, wet, or windy it might be!

Date:

Astronomy

Nov. 04, 2013 Rise Set
Actual Time 7:51 AM CET 6:22 PM CET
Civil Twilight 7:24 AM CET 6:49 PM CET
Nautical Twilight 6:53 AM CET 7:20 PM CET
Astronomical Twilight 6:22 AM CET 7:51 PM CET
Moon 8:45 AM CET (11/4) 7:16 PM CET (11/4)
Length of Visible Light 11h 25m
Length of Day
10h 30m
New Moon, 1% of the Moon is Illuminated
Nov 4
New Moon
Nov 10
First Quarter
Nov 17
Full
Nov 25
Last Quarter
Dec 3
New

Hourly Weather History & Observations

Time (CET) Temp. Dew Point Humidity Pressure Visibility Wind Dir Wind Speed Gust Speed Precip Events Conditions
12:00 AM 57.2 °F 53.6 °F 88% 30.18 in - Calm Calm - N/A   Clear
12:30 AM 57.2 °F 55.4 °F 94% 30.15 in - South 2.3 mph - N/A   Clear
1:00 AM 55.4 °F 53.6 °F 94% 30.15 in - Calm Calm - N/A   Clear
4:30 AM 53.6 °F 51.8 °F 94% 30.15 in - WNW 2.3 mph - N/A   Clear
5:00 AM 53.6 °F 50.0 °F 88% 30.15 in - NW 5.8 mph - N/A   Clear
5:30 AM 53.6 °F 50.0 °F 88% 30.15 in - NNW 5.8 mph - N/A   Clear
6:00 AM 51.8 °F 50.0 °F 94% 30.15 in - NW 1.2 mph - N/A   Clear
6:30 AM 51.8 °F 50.0 °F 94% 30.15 in - Calm Calm - N/A   Clear
7:00 AM 51.8 °F 48.2 °F 88% 30.18 in - NW 2.3 mph - N/A   Clear
7:30 AM 51.8 °F 48.2 °F 88% 30.18 in - Variable 1.2 mph - N/A   Clear
8:00 AM 51.8 °F 50.0 °F 94% 30.21 in - Variable 1.2 mph - N/A   Clear
8:30 AM 51.8 °F 50.0 °F 94% 30.18 in - SW 3.5 mph - N/A   Clear
9:00 AM 53.6 °F 51.8 °F 94% 30.18 in - Variable 2.3 mph - N/A   Clear
9:30 AM 55.4 °F 51.8 °F 88% 30.21 in - Variable 2.3 mph - N/A   Clear
10:00 AM 57.2 °F 51.8 °F 82% 30.21 in - Calm Calm - N/A   Clear
10:30 AM 59.0 °F 51.8 °F 77% 30.18 in - Variable 2.3 mph - N/A   Clear
11:00 AM 60.8 °F 51.8 °F 72% 30.21 in - SW 3.5 mph - N/A   Clear
11:30 AM 62.6 °F 51.8 °F 68% 30.21 in - WSW 5.8 mph - N/A   Clear
12:00 PM 62.6 °F 50.0 °F 63% 30.21 in - West 5.8 mph - N/A   Clear
12:30 PM 62.6 °F 51.8 °F 68% 30.21 in 6.2 mi West 6.9 mph - N/A   Partly Cloudy
1:00 PM 62.6 °F 50.0 °F 63% 30.21 in 6.2 mi West 5.8 mph - N/A   Partly Cloudy
1:30 PM 64.4 °F 51.8 °F 64% 30.18 in 6.2 mi West 4.6 mph - N/A   Scattered Clouds
2:00 PM 66.2 °F 51.8 °F 60% 30.15 in 6.2 mi West 9.2 mph 20.7 mph N/A   Scattered Clouds
2:30 PM 66.2 °F 51.8 °F 60% 30.15 in 6.2 mi West 10.4 mph - N/A   Scattered Clouds
3:00 PM 68.0 °F 51.8 °F 56% 30.15 in 6.2 mi West 12.7 mph - N/A   Mostly Cloudy
3:30 PM 68.0 °F 53.6 °F 60% 30.15 in 6.2 mi West 13.8 mph - N/A   Scattered Clouds
4:00 PM 68.0 °F 53.6 °F 60% 30.15 in 6.2 mi West 12.7 mph - N/A   Scattered Clouds
4:30 PM 68.0 °F 53.6 °F 60% 30.15 in 6.2 mi West 10.4 mph - N/A   Mostly Cloudy
5:00 PM 68.0 °F 51.8 °F 56% 30.15 in 6.2 mi West 12.7 mph - N/A   Mostly Cloudy
5:30 PM 68.0 °F 51.8 °F 56% 30.15 in 6.2 mi West 10.4 mph - N/A   Mostly Cloudy
6:00 PM 66.2 °F 53.6 °F 64% 30.12 in 6.2 mi WSW 11.5 mph - N/A   Mostly Cloudy
6:30 PM 66.2 °F 53.6 °F 64% 30.15 in 6.2 mi WSW 9.2 mph - N/A   Mostly Cloudy
7:00 PM 66.2 °F 53.6 °F 64% 30.15 in 6.2 mi WSW 9.2 mph - N/A   Mostly Cloudy
7:30 PM 66.2 °F 55.4 °F 68% 30.18 in 6.2 mi SW 6.9 mph - N/A   Overcast
8:00 PM 64.4 °F 55.4 °F 73% 30.18 in 6.2 mi SW 8.1 mph - N/A   Overcast
8:30 PM 64.4 °F 55.4 °F 73% 30.18 in 6.2 mi SW 8.1 mph - N/A   Mostly Cloudy
9:00 PM 64.4 °F 57.2 °F 77% 30.18 in 6.2 mi SSW 8.1 mph - N/A   Mostly Cloudy
9:30 PM 64.4 °F 57.2 °F 77% 30.15 in 6.2 mi SSW 8.1 mph - N/A   Mostly Cloudy
10:00 PM 64.4 °F 57.2 °F 77% 30.18 in 6.2 mi SW 9.2 mph - N/A   Mostly Cloudy
10:30 PM 64.4 °F 57.2 °F 77% 30.18 in 6.2 mi WSW 9.2 mph - N/A   Mostly Cloudy
11:00 PM 64.4 °F 57.2 °F 77% 30.18 in 6.2 mi SW 8.1 mph - N/A   Mostly Cloudy
11:30 PM 64.4 °F 55.4 °F 73% 30.18 in 6.2 mi WSW 6.9 mph - N/A   Mostly Cloudy